RH
29 31 33 34 38 45 47 48 54 58 55 57 48 47 69 71 69 62 72 78 78 78 78 80 78 82 84 74 83 89 83 86
27 34 35 37 41 45 46 51 56 53 52 54 52 50 47 65 65 67 68 70 80 81 77 80 80 77 80 80 82 88 88 87
31 33 36 42 43 46 47 47 51 52 51 51 55 57 55 55 60 66 66 70 72 79 78 75 80 78 79 89 84 86 86 88
35 36 41 44 46 47 44 47 49 53 57 52 51 52 51 52 52 54 67 66 69 76 78 75 74 80 81 83 87 85 89 90
36 38 41 44 46 49 50 50 51 50 56 58 64 64 66 61 60 53 60 66 65 68 76 76 73 79 82 85 82 79 86 89
41 42 43 43 47 50 54 55 52 54 56 61 62 67 66 62 62 62 61 63 69 67 73 76 80 81 82 86 86 84 80 79
44 44 46 48 50 54 57 58 56 57 60 62 65 67 67 72 72 71 67 71 69 68 68 76 78 83 82 88 88 88 84 80
52 53 55 56 57 59 59 60 62 61 63 65 65 67 70 71 74 75 74 71 75 69 72 76 78 81 79 85 90 88 86 84
59 61 60 63 63 62 66 70 71 66 68 68 68 70 72 70 70 74 74 73 69 71 72 69 74 80 82 85 86 88 87 86
66 64 68 70 70 72 73 78 76 76 77 78 77 76 76 77 76 76 77 74 68 69 74 72 75 83 84 86 88 91 90 87
74 78 80 78 78 81 85 83 87 87 84 85 82 82 80 79 80 82 82 78 76 71 81 75 76 87 90 93 89 90 91 90
89 94 87 91 89 93 93 90 94 92 88 87 87 86 86 85 87 87 85 83 80 76 75 87 83 90 87 88 92 91 93 91
95 99 98 99 99 99 99 97 96 98 96 86 88 88 87 89 91 93 91 86 81 80 74 79 81 85 89 90 91 93 93 93
89 94 96 97 96 99 99 98 97 99 98 93 89 91 91 92 91 91 91 92 94 94 94 96 98 97 94 94 93 93 94 92
89 90 94 95 96 99 98 97 98 99 99 97 92 94 93 92 90 88 90 89 91 92 93 94 95 95 96 97 96 96 96 96
90 94 94 88 90 95 97 96 96 98 97 97 98 97 89 87 88 88 87 92 96 91 90 92 93 93 96 96 95 95 96 95
87 82 75 82 80 90 88 95 96 97 96 98 98 99 93 88 88 89 92 92 92 90 92 91 95 93 97 96 94 94 92 94
73 74 76 79 72 73 74 74 82 88 94 95 96 96 97 98 94 90 93 94 90 92 93 92 94 96 99 97 94 94 94 94
74 76 73 76 63 67 64 62 70 79 82 86 88 94 96 97 97 94 96 96 94 93 93 93 92 93 92 95 95 97 95 96
Wind_Speed
12 14 13 14 14 14 15 14 15 15 10 9 8 8 8 9 11 11 14 13 15 13 8 10 10 6 4 9 10 6 7 7
12 11 12 13 14 15 15 15 14 12 10 10 10 6 9 8 9 11 12 13 16 16 13 10 12 12 8 9 8 10 7 6
13 13 13 14 13 13 15 14 13 11 11 11 11 11 10 12 8 13 14 14 15 16 16 14 14 11 13 8 11 8 7 8
15 16 15 15 15 15 15 16 15 13 15 12 11 12 11 10 9 10 14 17 17 17 19 16 15 13 13 14 12 14 10 8
16 16 15 14 14 15 16 17 17 14 15 13 15 12 13 12 11 12 10 17 18 18 18 17 16 14 14 15 14 14 9 11
16 16 17 17 16 15 16 16 17 18 17 15 12 14 12 12 13 15 14 13 13 19 17 19 18 13 16 17 16 15 13 10
15 16 17 16 16 15 15 18 16 18 18 18 16 16 16 14 15 14 12 9 12 15 19 17 18 15 16 12 14 15 15 14
16 18 18 18 18 18 16 17 18 18 18 17 18 17 17 17 17 14 15 12 10 14 16 18 16 17 14 13 13 15 16 14
18 19 18 19 19 19 18 18 18 17 18 17 16 17 12 14 16 15 14 13 12 13 15 19 20 19 15 15 12 12 14 14
17 18 17 17 18 19 18 18 18 17 17 16 15 15 17 16 19 17 15 19 15 17 15 18 22 17 16 15 11 14 14 15
14 15 16 15 16 16 17 17 17 17 16 14 13 15 16 17 16 19 19 21 21 19 10 14 17 13 13 11 13 12 14 12
13 13 14 14 14 15 16 16 16 16 16 14 14 12 12 12 13 17 20 20 20 22 11 9 4 17 14 15 13 13 14 14
13 13 15 15 16 14 14 16 17 16 15 14 14 13 13 13 13 14 10 18 18 18 11 16 18 24 18 16 15 13 14 14
15 14 14 15 16 14 15 15 17 16 15 15 16 14 14 15 15 15 17 18 17 18 17 16 12 8 10 13 14 14 14 13
15 14 14 15 16 14 16 17 17 17 16 17 18 18 17 14 14 19 19 19 22 19 16 15 15 13 12 10 12 12 10 7
15 14 14 16 17 17 16 17 18 17 18 20 19 16 15 15 20 21 20 22 25 18 19 18 18 18 12 12 15 16 16 14
14 15 17 18 18 18 16 17 17 16 17 17 17 16 18 18 23 23 24 25 23 16 23 24 22 16 29 23 20 17 17 15
14 15 15 16 17 17 17 17 17 19 18 19 19 19 19 22 21 21 22 20 19 23 23 22 21 21 28 26 26 17 15 16
13 13 13 14 15 15 15 16 17 18 19 19 19 19 20 20 20 20 22 17 20 19 21 21 22 22 31 26 27 20 14 20
Wind_Direction
48 33 20 7 359 356 345 341 341 338 326 308 293 290 232 217 228 232 195 190 201 217 228 196 211 227 210 182 170 176 183 183
49 36 21 8 357 347 343 335 331 330 322 317 308 277 277 227 222 226 220 200 193 203 218 193 200 213 218 181 176 172 195 185
20 18 14 8 351 341 330 322 325 323 318 315 314 305 293 301 264 214 226 205 201 199 206 216 194 201 211 202 186 182 186 188
12 4 4 359 347 338 331 325 328 326 317 307 301 302 293 281 271 270 214 220 209 201 202 205 207 200 202 202 193 181 190 193
4 0 350 346 338 341 336 331 326 316 316 303 300 299 295 293 297 296 267 210 220 210 202 205 213 197 201 200 195 199 185 194
356 350 349 341 343 338 333 328 320 314 312 309 299 289 292 296 296 292 288 285 232 227 214 211 216 200 207 194 190 194 203 202
351 348 344 340 338 334 330 323 320 316 309 305 297 291 285 287 289 289 285 288 277 235 218 217 219 221 216 202 185 195 199 205
349 348 347 339 336 333 327 327 316 311 301 300 297 292 288 280 278 280 279 275 278 254 228 218 217 215 198 193 196 195 200 201
356 352 346 343 336 331 330 324 316 311 303 298 296 291 282 276 268 270 274 269 263 257 244 233 220 218 197 194 194 194 199 207
356 351 351 342 337 333 329 327 321 312 307 299 289 283 275 269 268 265 267 269 262 253 248 235 230 209 200 193 199 194 194 203
359 359 347 339 336 332 329 329 322 315 311 303 292 284 274 265 261 258 256 261 266 261 221 238 244 224 197 199 197 200 201 200
7 353 340 334 332 335 337 334 329 330 324 315 311 310 306 295 271 271 243 251 259 262 218 148 236 252 221 210 196 194 202 198
358 352 344 342 341 336 346 346 344 339 332 339 345 346 349 348 339 329 353 244 265 286 240 186 199 226 213 206 194 192 194 200
360 355 351 347 342 345 356 351 351 348 352 358 4 358 8 12 5 14 28 42 45 34 34 30 18 3 227 193 189 190 187 190
1 355 352 345 351 352 1 359 357 356 4 11 14 11 14 18 26 35 33 41 45 35 34 41 28 19 11 335 194 181 159 175
1 356 354 354 360 357 4 5 1 3 9 16 17 13 21 28 40 39 39 39 46 26 33 36 36 30 14 18 54 58 68 68
3 4 3 1 7 1 7 8 6 7 14 19 16 18 23 30 42 38 40 39 47 42 41 37 34 27 25 38 52 54 57 50
6 6 9 1 11 0 8 12 8 12 15 16 16 21 22 31 39 41 46 39 40 46 45 40 39 33 26 37 55 54 47 58
9 2 11 5 5 9 7 11 15 19 18 17 17 20 24 27 32 35 49 27 40 44 41 41 39 37 31 35 49 56 31 44